Temp
-15 -15 -15 -14 -12 -12 -11 -12 -13 -14 -13 -13 -13 -14 -13 -13 -13 -14 -13 -13 -13 -14 -14 -15 -16 -16 -16 -16 -16 -16 -16 -16
-14 -15 -15 -15 -14 -12 -12 -12 -13 -13 -14 -13 -13 -14 -13 -13 -13 -13 -13 -14 -15 -14 -15 -16 -16 -16 -16 -16 -16 -17 -16 -16
-14 -14 -15 -15 -15 -15 -14 -14 -14 -13 -13 -13 -13 -13 -14 -14 -14 -14 -14 -14 -15 -15 -16 -16 -17 -17 -16 -16 -16 -16 -16 -16
-14 -14 -14 -15 -15 -15 -15 -14 -14 -14 -14 -14 -14 -14 -14 -14 -14 -14 -14 -14 -15 -15 -15 -15 -16 -16 -17 -17 -16 -16 -16 -16
-14 -14 -14 -14 -14 -15 -15 -15 -15 -14 -14 -15 -14 -14 -14 -14 -14 -14 -14 -15 -15 -15 -16 -16 -16 -16 -16 -16 -16 -16 -16 -16
-14 -14 -14 -14 -14 -14 -14 -14 -14 -14 -14 -15 -15 -14 -14 -14 -15 -15 -15 -16 -16 -16 -16 -16 -16 -16 -16 -16 -17 -16 -17 -16
-14 -14 -14 -14 -14 -14 -14 -14 -14 -14 -14 -14 -15 -15 -15 -15 -16 -16 -17 -16 -17 -16 -16 -17 -17 -17 -17 -16 -16 -16 -16 -16
-14 -14 -14 -14 -14 -14 -14 -14 -14 -14 -14 -14 -14 -15 -15 -16 -16 -17 -16 -16 -16 -17 -17 -17 -16 -16 -16 -16 -17 -16 -17 -17
-14 -15 -14 -14 -14 -14 -14 -14 -14 -14 -14 -14 -15 -15 -15 -16 -16 -16 -16 -16 -16 -16 -16 -16 -16 -16 -16 -16 -16 -16 -16 -17
-14 -14 -14 -14 -15 -15 -14 -15 -15 -15 -15 -15 -15 -15 -15 -16 -16 -16 -17 -17 -17 -16 -16 -16 -16 -16 -16 -16 -17 -16 -16 -16
-14 -15 -15 -15 -15 -15 -14 -15 -15 -15 -15 -15 -15 -15 -15 -16 -16 -16 -16 -17 -16 -16 -16 -16 -16 -17 -16 -16 -16 -16 -16 -17
-14 -15 -15 -15 -15 -15 -15 -15 -15 -15 -15 -15 -15 -15 -15 -15 -15 -15 -15 -16 -16 -16 -16 -16 -15 -16 -16 -16 -16 -16 -17 -17
-14 -15 -15 -15 -15 -16 -16 -16 -15 -15 -15 -15 -15 -14 -15 -15 -16 -16 -16 -16 -16 -16 -16 -16 -16 -16 -16 -16 -17 -17 -17 -17
-15 -15 -15 -15 -15 -16 -16 -16 -16 -16 -15 -15 -15 -15 -16 -16 -16 -16 -16 -15 -15 -16 -16 -16 -16 -16 -17 -17 -17 -17 -17 -17
-15 -16 -16 -16 -16 -15 -15 -15 -15 -15 -15 -15 -16 -16 -16 -16 -16 -16 -16 -16 -16 -16 -16 -16 -16 -16 -17 -17 -17 -17 -17 -18
-16 -16 -16 -17 -17 -17 -16 -15 -15 -15 -15 -15 -15 -15 -16 -15 -16 -16 -16 -16 -16 -16 -16 -16 -16 -17 -18 -17 -17 -18 -18 -18
-16 -16 -17 -17 -16 -17 -17 -16 -16 -16 -15 -15 -16 -16 -16 -16 -16 -16 -16 -16 -16 -16 -16 -17 -17 -17 -18 -18 -18 -18 -18 -18
-17 -17 -16 -16 -16 -16 -16 -16 -16 -16 -16 -16 -16 -16 -16 -16 -16 -16 -16 -16 -16 -16 -17 -17 -17 -18 -18 -18 -18 -18 -19 -19
-17 -17 -16 -15 -16 -15 -15 -15 -16 -16 -15 -15 -15 -15 -15 -16 -16 -16 -16 -16 -16 -17 -17 -17 -18 -18 -18 -18 -18 -19 -19 -19
Height
5718 5719 5716 5714 5711 5714 5715 5718 5716 5717 5720 5723 5726 5728 5732 5736 5739 5741 5746 5747 5748 5751 5754 5755 5758 5762 5764 5766 5768 5768 5769 5771
5717 5717 5717 5713 5709 5710 5713 5714 5714 5716 5717 5720 5723 5726 5730 5734 5737 5738 5740 5742 5747 5750 5751 5755 5757 5760 5760 5762 5763 5764 5765 5767
5717 5716 5715 5715 5712 5710 5710 5714 5711 5713 5714 5719 5722 5724 5727 5730 5734 5738 5741 5744 5746 5748 5750 5754 5753 5756 5758 5759 5761 5762 5763 5763
5718 5718 5718 5716 5713 5713 5717 5719 5718 5715 5715 5718 5722 5725 5726 5731 5735 5739 5740 5743 5745 5744 5748 5751 5750 5753 5754 5756 5757 5758 5759 5759
5719 5719 5718 5717 5716 5716 5717 5719 5720 5720 5721 5723 5727 5727 5728 5734 5736 5739 5740 5740 5742 5745 5744 5746 5747 5750 5752 5753 5754 5754 5753 5753
5719 5719 5719 5716 5717 5718 5718 5719 5719 5720 5721 5724 5727 5728 5730 5732 5733 5737 5737 5737 5740 5742 5744 5745 5747 5748 5748 5749 5747 5748 5747 5747
5718 5719 5719 5718 5718 5719 5720 5721 5723 5722 5722 5722 5723 5726 5726 5729 5731 5732 5734 5735 5737 5739 5739 5742 5743 5741 5742 5743 5743 5742 5741 5740
5716 5718 5718 5718 5718 5719 5720 5720 5721 5722 5722 5722 5723 5724 5725 5727 5727 5729 5731 5732 5733 5733 5734 5735 5737 5737 5738 5736 5737 5735 5734 5733
5714 5715 5716 5716 5716 5718 5718 5718 5718 5719 5719 5720 5721 5721 5722 5724 5727 5728 5727 5728 5728 5730 5732 5733 5732 5732 5732 5731 5729 5729 5728 5726
5712 5712 5712 5713 5713 5714 5715 5715 5716 5716 5716 5717 5718 5719 5721 5722 5723 5725 5726 5725 5724 5724 5724 5724 5724 5725 5725 5723 5721 5722 5720 5717
5709 5709 5709 5709 5711 5712 5713 5713 5713 5714 5715 5716 5716 5716 5717 5717 5717 5719 5719 5720 5720 5718 5717 5716 5716 5715 5716 5716 5715 5712 5710 5708
5707 5706 5707 5706 5707 5708 5709 5710 5711 5711 5711 5711 5711 5711 5711 5711 5712 5714 5714 5713 5711 5710 5711 5707 5706 5707 5708 5706 5706 5702 5700 5698
5705 5704 5703 5704 5704 5704 5704 5704 5705 5705 5705 5704 5704 5701 5703 5704 5704 5704 5704 5706 5700 5702 5701 5699 5695 5697 5698 5696 5695 5692 5690 5687
5699 5700 5700 5700 5700 5700 5700 5700 5700 5700 5699 5698 5698 5697 5697 5697 5698 5698 5697 5692 5689 5693 5694 5691 5689 5690 5688 5687 5684 5683 5680 5677
5690 5690 5693 5695 5694 5694 5694 5694 5694 5693 5694 5694 5693 5691 5693 5694 5692 5689 5687 5688 5687 5686 5684 5681 5681 5681 5680 5678 5676 5672 5669 5666
5685 5686 5687 5687 5686 5687 5688 5687 5687 5686 5688 5687 5688 5687 5687 5686 5683 5683 5681 5682 5680 5678 5675 5674 5673 5671 5670 5667 5664 5661 5658 5654
5676 5677 5681 5682 5681 5680 5680 5680 5680 5681 5680 5680 5679 5678 5677 5675 5675 5673 5673 5672 5669 5668 5667 5664 5662 5661 5657 5655 5652 5649 5645 5641
5671 5672 5674 5677 5676 5674 5674 5674 5673 5672 5673 5671 5671 5670 5669 5668 5665 5664 5663 5661 5659 5657 5655 5653 5651 5648 5646 5643 5640 5636 5632 5628
5665 5666 5667 5668 5669 5668 5667 5668 5667 5666 5665 5663 5662 5660 5659 5658 5658 5657 5654 5652 5649 5645 5642 5640 5638 5636 5633 5629 5625 5621 5617 5613
Wind_Speed
7 5 5 7 5 9 15 18 19 19 21 21 20 21 22 27 23 20 20 20 22 24 23 18 19 17 16 14 12 16 20 21
6 4 4 2 5 4 12 18 16 16 20 19 20 19 16 19 20 21 20 17 20 21 19 21 20 19 15 14 18 20 22 24
6 5 2 1 7 11 12 9 11 14 18 22 23 20 17 17 18 20 21 20 19 19 18 19 16 13 17 18 18 20 24 26
5 6 4 4 5 9 9 11 15 18 19 19 18 21 22 20 17 15 16 18 17 17 20 20 18 17 18 19 19 21 24 26
9 8 6 4 5 6 7 7 12 16 18 20 19 18 17 18 20 20 18 17 18 19 17 19 18 19 18 17 17 19 19 22
9 9 8 5 4 4 5 6 6 7 12 15 16 16 16 15 15 18 18 16 16 17 18 16 17 16 17 17 17 21 24 25
9 7 6 5 5 7 9 9 10 10 10 10 9 11 12 14 15 14 15 16 16 16 15 18 18 14 16 17 19 21 23 24
11 11 8 6 4 6 7 7 6 6 7 8 11 10 10 10 10 12 14 15 17 18 19 20 23 22 22 22 23 23 26 27
13 13 13 12 7 7 8 6 5 6 8 10 10 9 10 9 10 14 15 16 16 17 18 23 24 24 24 27 30 29 30 30
14 15 17 17 12 11 11 10 10 8 10 11 12 13 16 16 17 18 20 20 21 25 27 28 29 31 28 35 43 36 31 32
10 12 17 16 15 16 14 13 12 14 13 13 15 18 21 24 25 26 26 26 28 32 35 37 34 36 38 36 34 36 32 32
7 7 12 16 17 16 17 18 18 20 19 21 23 24 26 28 29 30 31 32 35 37 42 48 36 44 35 29 31 35 31 34
13 11 8 10 13 15 17 17 16 19 25 28 27 28 25 32 16 29 36 42 48 42 26 23 25 25 26 29 31 31 34 36
21 15 15 15 12 15 16 17 20 23 24 25 21 17 17 20 23 23 21 28 30 23 26 24 24 27 29 32 34 35 38 40
22 15 12 11 16 19 19 20 21 21 21 21 21 22 21 24 22 23 24 27 28 28 29 29 31 34 35 38 39 42 43 44
25 19 16 18 20 19 24 24 25 27 24 25 24 23 24 25 22 24 27 29 29 29 31 34 35 36 40 42 42 43 44 45
29 27 23 24 22 16 24 24 24 27 27 25 25 24 25 25 26 27 29 32 32 34 34 33 36 39 41 43 42 43 45 45
30 33 31 22 22 19 19 23 24 25 23 23 23 24 26 27 29 32 33 34 36 37 35 36 37 39 41 43 44 45 45 47
33 35 31 19 19 20 20 21 22 25 27 27 27 27 29 31 32 34 37 39 39 38 37 39 41 43 44 46 46 47 49 51
Wind_Direction
304 295 311 304 250 247 230 218 211 210 197 201 210 215 207 209 220 220 235 241 244 241 226 203 176 180 186 204 222 228 230 227
282 316 266 347 48 197 196 212 193 199 193 197 202 202 215 214 225 227 223 203 190 180 164 174 184 198 202 220 227 238 241 239
256 271 304 166 85 86 107 133 151 195 192 197 206 218 201 181 165 162 162 168 170 175 181 195 196 211 225 238 247 250 251 248
225 255 227 184 137 117 120 131 128 125 127 143 150 156 155 159 165 173 180 187 191 191 206 214 213 223 236 247 252 256 259 259
202 211 220 204 162 162 146 145 140 139 141 148 162 163 164 179 186 193 196 197 202 214 216 223 223 231 237 250 253 259 266 271
210 197 213 196 194 203 166 161 152 155 152 159 169 177 181 190 194 198 196 196 204 212 218 230 233 233 234 249 254 260 263 271
211 217 210 195 213 208 196 198 205 196 200 197 197 201 195 201 203 206 206 206 213 222 222 228 234 236 240 252 252 260 265 274
207 211 202 188 212 222 239 242 250 245 240 236 226 223 223 222 223 229 231 222 221 221 228 236 242 249 249 252 259 265 269 274
211 212 216 214 215 219 222 235 252 276 279 275 270 265 268 261 254 256 260 261 258 254 250 252 251 256 260 262 262 264 270 274
238 230 226 229 232 231 221 218 222 227 246 267 280 281 279 269 257 253 251 256 265 267 263 260 266 268 271 269 259 258 267 277
211 229 241 238 235 236 237 240 245 241 248 255 255 253 254 255 256 255 255 260 265 263 260 262 264 262 263 260 269 268 274 280
232 220 221 225 231 242 248 254 252 251 249 253 255 255 260 264 264 263 264 262 261 259 263 269 259 265 259 268 263 263 282 286
234 245 250 245 240 241 241 245 258 258 253 252 254 267 276 268 295 276 260 274 258 256 271 291 296 290 284 280 278 284 287 286
245 246 241 243 246 241 244 255 262 269 271 280 271 287 304 304 303 306 292 317 257 275 291 298 297 297 293 289 290 290 285 285
269 279 258 255 267 263 255 249 255 264 274 270 278 277 286 283 292 302 307 304 305 301 289 295 297 294 293 290 290 290 289 286
271 270 257 275 282 263 246 258 268 273 269 271 274 278 279 281 291 294 296 293 293 294 296 293 293 291 288 289 287 290 289 289
280 286 278 290 277 263 252 257 270 271 273 271 268 270 275 286 289 295 295 296 296 294 292 294 292 290 290 289 289 287 287 289
271 276 279 276 266 270 262 262 274 279 277 277 272 273 279 286 294 295 295 295 292 292 293 290 289 289 288 288 289 289 291 291
261 265 273 261 266 272 260 266 276 279 280 277 277 284 286 290 291 291 290 290 291 292 291 291 291 291 292 292 291 291 293 293